Tracking 29495 objects as of 7-Sep-2024
HD Live streaming from Space Station
objects crossing your sky now

IRIDIUM 178

Track IRIDIUM 178 now!
10-day predictions
IRIDIUM 178 is classified as:


NORAD ID: 56729
Int'l Code: 2023-068V
Perigee: 634.2 km
Apogee: 637.1 km
Inclination: 86.6 °
Period: 97.3 minutes
Semi major axis: 7006 km
RCS: Unknown
Launch date: May 20, 2023
Source: United States (US)
Launch site: AIR FORCE WESTERN TEST RANGE (AFWTR)
Your satellite tracking list
Your tracking list is empty




NASA's NSSDC Master Catalog

Two Line Element Set (TLE):
1 56729U 23068V   24250.20105858  .00004632  00000-0  60558-3 0  9992
2 56729  86.5752 298.3168 0002136 100.9795 259.1667 14.80256938 70362
Source of the keplerian elements: AFSPC